Location: ?????
(55.8833°N, 37.6500°E)
Time: 04:51:28
(UTC+00:00)

Cosmos 1464 Rocket - Pass Details

Date: 27 February 2020
Orbit: 952 x 1002 km, 82.9° (Epoch: 29 March)

Event Time Altitude Azimuth Distance (km) Brightness Sun altitude
Rises 16:21:09 0° 177° (S) 3,713 7.0 -12.4°
Reaches altitude 10° 16:23:41 10° 174° (S) 2,770 6.3 -12.7°
Maximum altitude 16:29:58 65° 95° (E) 1,103 4.0 -13.6°
Drops below altitude 10° 16:36:17 10° 15° (NNE) 2,783 6.3 -14.5°
Sets 16:38:50 0° 13° (NNE) 3,732 7.0 -14.8°
